DateTimeUTC,F1_A11,F1_S11,BsB_S11,BsG_S11,BsR_S11,BbsB_S11,BbsG_S11,BbsR_S11,BaB_A11,BaG_A11,BaR_A11,Tu_S11,T_S11,Uu_S11,U_S11,P_S11,T1_A11
2021-09-17T23:00:00Z,00000200,21000000,,,,,,,-000.38,0000.05,0000.04,17.9,25.3,,00.0,0657.0,31.0
2021-09-17T23:01:00Z,00000200,21000000,,,,,,,-000.12,-000.71,-000.67,18.0,25.3,,00.0,0657.0,31.0
2021-09-17T23:02:00Z,00000200,21000000,,,,,,,-000.40,0000.04,0000.10,18.0,25.3,,00.0,0657.0,31.0
2021-09-17T23:03:00Z,00000200,61000000,,,,,,,-000.41,-000.35,-000.51,18.0,25.4,,00.0,0657.0,31.0
2021-09-17T23:04:00Z,00000200,41000000,0000.54,0000.10,0000.25,0000.23,0000.39,0000.13,-000.68,-001.11,-000.33,18.1,25.1,,00.0,0657.9,31.0
2021-09-17T23:05:00Z,00000200,01000000,0000.88,0000.09,0000.24,0000.31,0000.38,0000.07,0000.22,0000.14,0000.10,18.1,25.0,,00.0,0658.0,31.0
2021-09-17T23:06:00Z,00000200,01000000,-000.16,0000.13,0000.28,0000.66,-000.02,0000.10,0000.10,0000.07,-000.18,18.0,24.9,,00.0,0658.0,31.0
2021-09-17T23:07:00Z,00000200,01000000,0000.39,0000.28,0000.05,-000.07,0000.13,0000.07,0000.53,0000.94,0000.47,17.9,24.9,,00.0,0658.0,31.0
2021-09-17T23:08:00Z,00000200,01000000,0000.33,0000.07,0000.01,0000.16,0000.19,-000.03,0000.49,0000.22,0000.27,17.9,24.9,,00.0,0658.0,30.9
2021-09-17T23:09:00Z,00000200,01000000,0000.13,0000.20,0000.45,0000.41,0000.19,0000.28,0000.40,0000.20,0000.73,17.8,24.8,,00.0,0658.0,30.9
2021-09-17T23:10:00Z,00000200,01000000,-000.11,0000.19,-000.11,0000.16,-000.03,0000.06,0000.69,0000.71,0000.43,17.9,24.8,,00.0,0658.0,31.0
2021-09-17T23:11:00Z,00000200,01000000,0000.43,-000.03,0000.10,-000.45,0000.07,0000.15,0000.36,0000.03,0000.00,17.9,24.8,,00.0,0657.9,31.0
2021-09-17T23:12:00Z,00000200,01000000,0000.98,0000.05,0000.49,0000.07,-000.00,0000.23,0000.28,0000.90,0000.30,18.0,24.9,,00.0,0658.0,31.0
2021-09-17T23:13:00Z,00000200,01000000,0000.35,0000.04,-000.07,-000.43,-000.07,-000.05,0000.23,0000.04,0000.28,18.1,24.9,,00.0,0658.0,31.0
2021-09-17T23:14:00Z,00000200,01000000,0000.73,-000.05,-000.00,-000.22,0000.25,0000.05,0000.05,0000.04,-000.18,18.2,25.0,,00.0,0658.0,31.0
2021-09-17T23:15:00Z,00000200,01000000,0000.28,-000.02,0000.15,-000.69,0000.25,0000.05,0000.00,0000.06,0000.16,18.3,25.0,,00.0,0658.0,31.0
2021-09-17T23:16:00Z,00000200,01000000,-000.27,-000.17,-000.01,-000.22,0000.14,-000.08,-000.49,-000.41,0000.07,18.4,25.1,,00.0,0658.0,31.1
2021-09-17T23:17:00Z,00000200,01000000,0000.13,-000.02,-000.06,-000.08,0000.19,-000.06,0000.51,0000.35,0000.27,18.4,25.1,,00.0,0658.0,31.1
2021-09-17T23:18:00Z,00000200,01000000,0000.58,-000.17,0000.04,-000.01,0000.15,0000.39,0000.02,-000.30,-000.24,18.4,25.1,,00.0,0657.9,31.0
2021-09-17T23:19:00Z,00000200,01000000,0000.40,0000.17,0000.16,0000.29,0000.21,-000.04,-000.44,0000.18,-000.61,18.4,25.1,,00.0,0657.9,31.0
2021-09-17T23:20:00Z,00000200,01000000,0000.49,0000.10,0000.09,-000.03,0000.06,0000.12,-000.06,-000.26,-000.05,18.3,25.1,,00.0,0657.9,31.0
2021-09-17T23:21:00Z,00000200,01000000,0000.34,-000.10,0000.34,-000.11,-000.19,0000.05,-000.21,-000.32,0000.24,18.2,25.0,,00.0,0657.9,31.0
2021-09-17T23:22:00Z,00000200,01000000,0000.02,0000.34,-000.11,0000.44,0000.19,-000.08,0000.08,0000.16,0000.14,18.1,25.0,,00.0,0657.9,31.0
2021-09-17T23:23:00Z,00000200,01000000,0000.30,-000.01,-000.09,0000.12,-000.26,0000.33,-000.29,-000.14,-000.50,18.1,24.9,,00.0,0657.9,31.0
2021-09-17T23:24:00Z,00000200,01000000,0000.24,-000.09,0000.01,0000.40,0000.08,0000.01,0000.51,0000.33,0000.42,18.0,24.9,,00.0,0657.9,31.0
2021-09-17T23:25:00Z,00000200,01000000,0000.16,0000.27,0000.24,0000.38,0000.25,0000.11,0000.15,0000.46,0000.32,18.0,24.9,,00.0,0657.9,31.0
2021-09-17T23:26:00Z,00000200,01000000,0000.50,0000.11,0000.00,-000.30,-000.12,0000.01,0000.11,-000.08,-000.19,18.1,24.9,,00.0,0657.9,31.0
2021-09-17T23:27:00Z,00000200,01000000,0000.57,0000.21,0000.46,-000.45,-000.22,0000.34,0000.28,0000.09,0000.65,18.2,24.9,,00.0,0657.9,31.0
2021-09-17T23:28:00Z,00000200,01000000,0000.19,-000.08,0000.28,-000.12,0000.21,0000.10,-000.03,0000.09,-000.35,18.3,25.0,,00.0,0657.9,31.0
2021-09-17T23:29:00Z,00000200,01000000,0000.47,-000.17,-000.01,0000.21,0000.42,0000.33,0000.15,0000.01,0000.16,18.4,25.0,,00.0,0657.9,31.1
2021-09-17T23:30:00Z,00000200,01000000,-000.18,-000.26,0000.12,0000.04,-000.05,0000.09,0000.03,-000.03,0000.29,18.5,25.1,,00.0,0657.9,31.0
2021-09-17T23:31:00Z,00000200,01000000,-000.49,0000.09,0000.00,0000.07,0000.13,0000.23,-000.40,0000.22,-000.40,18.6,25.1,,00.0,0657.9,31.1
2021-09-17T23:32:00Z,00000200,01000000,0000.15,0000.05,0000.08,-000.07,0000.06,0000.11,0000.05,-000.38,0000.04,18.6,25.2,,00.0,0657.9,31.1
2021-09-17T23:33:00Z,00000200,01000000,0000.40,0000.10,0000.13,-000.23,0000.15,-000.18,-000.08,-000.14,-000.18,18.7,25.2,,00.0,0658.0,31.1
2021-09-17T23:34:00Z,00000200,01000000,0000.24,0000.19,0000.16,-000.60,0000.10,0000.06,-000.36,0000.21,-000.33,18.6,25.2,,00.0,0657.9,31.0
2021-09-17T23:35:00Z,00000200,01000000,0001.01,-000.07,-000.05,-000.33,0000.32,-000.08,-000.60,-000.85,-000.18,18.5,25.1,,00.0,0657.9,31.0
2021-09-17T23:36:00Z,00000200,01000000,0000.30,-000.20,0000.28,-000.39,-000.02,-000.03,-000.08,-000.69,-000.42,18.4,25.1,,00.0,0657.9,31.0
2021-09-17T23:37:00Z,00000200,01000000,0000.57,0000.19,0000.09,0000.31,0000.16,0000.24,0000.63,0000.83,0000.35,18.3,25.1,,00.0,0657.9,31.0
2021-09-17T23:38:00Z,00000200,01000000,-000.36,-000.55,0000.26,-000.33,-000.09,0000.08,0000.38,0000.85,0000.65,18.2,25.0,,00.0,0657.9,31.0
2021-09-17T23:39:00Z,00000200,01000000,0000.34,0000.10,-000.09,-000.45,0000.22,-000.07,0000.80,0000.27,0000.18,18.2,25.0,,00.0,0657.9,31.0
2021-09-17T23:40:00Z,00000200,01000000,-000.09,0000.24,-000.32,0000.04,0000.20,0000.36,0000.16,0000.68,0000.49,18.2,25.0,,00.0,0657.9,31.0
2021-09-17T23:41:00Z,00000200,01000000,-000.00,-000.07,0000.28,-000.98,0000.25,0000.50,0000.01,-000.01,-000.02,18.3,25.0,,00.0,0657.9,31.0
2021-09-17T23:42:00Z,00000200,01000000,0000.41,0000.06,0000.17,-000.08,0000.24,0000.06,0000.06,0000.20,-000.09,18.4,25.0,,00.0,0657.9,31.0
2021-09-17T23:43:00Z,00000200,01000000,0000.57,-000.20,0000.03,0000.05,0000.22,0000.33,-000.34,-000.86,-000.06,18.4,25.1,,00.0,0657.9,31.0
2021-09-17T23:44:00Z,00000200,01000000,0000.74,0000.09,-000.04,-000.05,0000.02,-000.01,-000.31,-000.14,-000.50,18.5,25.1,,00.0,0657.9,31.0
2021-09-17T23:45:00Z,00000200,01000000,-000.29,-000.01,0000.20,-000.69,-000.05,0000.33,-000.56,-000.35,-000.04,18.5,25.2,,00.0,0657.9,31.1
2021-09-17T23:46:00Z,00000200,01000000,0000.80,0000.33,-000.14,-000.33,0000.12,-000.33,-000.47,-000.56,-000.47,18.5,25.1,,00.0,0657.9,31.0
2021-09-17T23:47:00Z,00000200,01000000,0001.37,-000.14,0000.16,-000.23,-000.08,0000.26,-000.01,-000.26,-000.01,18.4,25.1,,00.0,0657.9,31.0
2021-09-17T23:48:00Z,00000200,01000000,0000.57,0000.03,0000.20,-000.17,0000.21,0000.07,-000.29,-000.49,-000.34,18.4,25.1,,00.0,0657.8,31.0
2021-09-17T23:49:00Z,00000200,01000000,0001.03,0000.13,0000.45,0000.41,-000.06,0000.18,-000.73,-000.19,-000.21,18.3,25.0,,00.0,0657.9,31.0
2021-09-17T23:50:00Z,00000200,01000000,0000.14,0000.35,0000.22,0000.38,0000.23,-000.14,-000.62,-000.56,-000.93,18.2,25.0,,00.0,0657.8,31.0
2021-09-17T23:51:00Z,00000200,01000000,0000.92,0000.15,0000.10,0000.37,0000.25,0000.04,-000.32,-000.36,-000.41,18.1,24.9,,00.0,0657.9,31.0
2021-09-17T23:52:00Z,00000200,01000000,-000.85,-000.02,-000.10,0000.19,0000.43,0000.02,-000.08,-000.21,0000.44,18.0,24.9,,00.0,0657.9,31.0
2021-09-17T23:53:00Z,00000200,01000000,0000.19,-000.03,0000.09,0000.61,-000.02,0000.14,0000.52,0000.46,0000.21,18.0,24.9,,00.0,0657.8,30.9
2021-09-17T23:54:00Z,00000200,01000000,-000.18,0000.15,-000.14,0000.12,0000.20,0000.01,0000.86,0000.67,0000.62,17.9,24.8,,00.0,0657.8,30.9
2021-09-17T23:55:00Z,00000200,01000000,0000.37,-000.10,-000.17,-000.10,0000.14,-000.32,0000.27,0000.23,0000.31,17.9,24.8,,00.0,0657.8,30.9
2021-09-17T23:56:00Z,00000200,01000000,0000.52,-000.02,0000.45,-000.37,0000.10,0000.10,0000.09,0000.24,0000.09,18.0,24.8,,00.0,0657.8,31.0
2021-09-17T23:57:00Z,00000200,41000000,,,,,,,-000.02,0000.43,0000.34,18.1,24.8,,00.0,0657.7,31.0
2021-09-17T23:58:00Z,00000200,61000000,,,,,,,-000.17,-000.32,-000.21,17.8,25.1,,00.0,0656.8,31.0
2021-09-17T23:59:00Z,00000200,21000000,,,,,,,-000.32,-000.22,-000.36,17.8,25.2,,00.0,0656.8,31.0
